[[{"header":{"parameterUnit":"m.s-1","parameterCategory":1,"la1":30.2991,"la2":30.254,"lo1":-89.0895,"lo2":-89.0444,"dy":0.0017,"dx":0.0017,"nx":28,"ny":28,"refTime":"2024-06-06T21:00:00:Z","depth":0,"parameterNumber":2,"parameterNumberName":"U-component_of_WINDS"},"data":[0,0,0,0,0,0,0,0,0,0,0,0,0,0,0,0,0,0,0,0,0,0,0,0,0,0,0,0,0,0,0,0,0,0,0,0,0,0,0,0,0,0,0,0,0,0,0,0,0,0,0,0,0,0,0,0,0,0,0.0515,0.0515,0,0.0525,0.0526,0.0526,0.0528,0.0528,0.0527,0.0527,0.0539,0.0539,0.0539,0,0,0,0,0,0,0,0,0,0,0,0,0,0.0496,0.0496,0.0514,0.0515,0.0515,0.0525,0.0526,0.0526,0.0528,0.0528,0.0527,0.0527,0.0539,0.0539,0.0539,0,0,0,0,0,0,0,0,0,0,0,0,0,0.0505,0.0496,0.0514,0.0517,0.0517,0.0525,0.0526,0.0526,0.0528,0.0528,0.0527,0.0527,0.0538,0.0539,0.054,0.0546,0,0,0.0541,0.0542,0,0,0,0,0,0,0,0,0.0504,0.0506,0.0517,0.0517,0.0517,0.0525,0.0523,0.0533,0.0528,0.0524,0.0527,0.0527,0.0534,0.0535,0.0538,0.0546,0.0547,0.0541,0.0542,0.0542,0.0542,0,0,0,0,0,0,0,0.0504,0.0505,0.0519,0.0517,0.0517,0.0518,0.0519,0.0525,0.053,0.0524,0.0524,0.0526,0.0534,0.0537,0.0538,0.0547,0.0541,0.0542,0.0542,0.0542,0.0562,0.0562,0,0,0,0,0,0,0.0503,0.0505,0.0518,0.0519,0.051,0.0518,0.052,0.0523,0.053,0.0531,0.0526,0.0526,0.0536,0.0537,0.0538,0.0546,0.0542,0.0543,0.0543,0.0562,0.0562,0.0562,0,0,0,0,0,0,0.0502,0.0504,0.0518,0.0512,0.0514,0.0519,0.0522,0.0523,0.0525,0.0531,0.0532,0.0527,0.0536,0.0537,0.0544,0.0547,0.0543,0.0543,0.0562,0.0562,0.0562,0.0562,0,0,0,0,0,0,0.0502,0.0504,0.0506,0.0512,0.0514,0.0524,0.0522,0.0523,0.0526,0.0526,0.0533,0.0533,0.0536,0.0543,0.0545,0.0547,0.0544,0.0561,0.0562,0.0562,0.0562,0.0562,0.0563,0,0,0,0,0,0.0501,0.0506,0.0506,0.0508,0.0517,0.0524,0.0525,0.0528,0.0527,0.0529,0.0533,0.0533,0.0546,0.0544,0.0545,0.0548,0.0561,0.0562,0.0562,0.0562,0.0562,0.0563,0,0,0,0,0,0,0.05,0.0506,0.0507,0.0514,0.0518,0.0524,0.0527,0.0528,0.0533,0.0533,0.0536,0.0538,0.0544,0.0547,0.0544,0.0555,0.0554,0.0554,0.0553,0.0553,0.0554,0.0553,0.0544,0,0,0,0,0,0.05,0.0505,0.051,0.0516,0.0518,0.0522,0.0525,0.0527,0.0532,0.0534,0.0537,0.0542,0.0547,0.0551,0.0556,0.0563,0.0564,0.0565,0.0566,0.0566,0.0567,0.0571,0.0572,0.0564,0.0564,0.0564,0,0,0.0501,0.0505,0.0508,0.0515,0.0519,0.0524,0.0524,0.0529,0.0533,0.0534,0.0541,0.0544,0.0549,0.0556,0.056,0.0559,0.0569,0.0567,0.0567,0.0567,0.0571,0.0572,0.0573,0.0564,0.0564,0.0564,0,0,0.0505,0.0509,0.0514,0.0518,0.0523,0.0526,0.0527,0.0533,0.0535,0.0542,0.0543,0.0548,0.0557,0.0561,0.0564,0.057,0.0571,0.0572,0.0574,0.0578,0.0578,0.0579,0.0581,0.0582,0.0572,0.0572,0.0572,0,0.0506,0.0513,0.0516,0.0521,0.0525,0.0527,0.0532,0.0535,0.0542,0.0545,0.0544,0.0555,0.0559,0.0567,0.0569,0.0571,0.0573,0.0571,0.0578,0.0579,0.0579,0.0582,0.0582,0.0572,0.0572,0.0572,0.0572,0,0.0513,0.0519,0.0522,0.0529,0.0532,0.0538,0.0542,0.0545,0.0547,0.055,0.0557,0.0561,0.0568,0.057,0.0571,0.0578,0.0577,0.0577,0.0576,0.058,0.0582,0.0583,0.0572,0.0572,0.0572,0.0572,0,0,0.0517,0.0525,0.0527,0.053,0.0536,0.054,0.0546,0.0552,0.0555,0.056,0.0565,0.0572,0.0572,0.0576,0.0578,0.0582,0.0587,0.0581,0.0581,0.0582,0.0594,0.0594,0.0595,0.0587,0.0587,0.0588,0.0594,0,0.0522,0.0531,0.0534,0.0542,0.0547,0.055,0.0554,0.0559,0.0562,0.0567,0.057,0.0576,0.0575,0.0578,0.0581,0.0585,0.0589,0.0585,0.0592,0.0592,0.059,0.0596,0.0596,0.0602,0.0595,0.0595,0.0595,0,0.0528,0.0534,0.0542,0.0548,0.0551,0.0555,0.0561,0.0565,0.0571,0.0573,0.0577,0.0579,0.0585,0.0584,0.0592,0.0589,0.0592,0.0595,0.0595,0.0595,0.0594,0.0597,0.0604,0.0605,0.0596,0.0596,0.0596,0,0.053,0.0539,0.0545,0.0548,0.0556,0.0559,0.0562,0.0567,0.0571,0.0576,0.0579,0.0585,0.0588,0.0593,0.0596,0.0595,0.0604,0.0603,0.0606,0.0606,0.0608,0.0608,0.0615,0.061,0.061,0.061,0.061,0,0.0535,0.054,0.0546,0.055,0.0556,0.056,0.0566,0.0569,0.0574,0.0579,0.0581,0.0586,0.059,0.0595,0.0598,0.0605,0.0606,0.0608,0.0609,0.0608,0.0608,0.061,0.061,0.061,0.061,0.061,0.061,0,0.0538,0.0542,0.0549,0.0556,0.0557,0.0562,0.0567,0.0571,0.0575,0.0581,0.0582,0.0588,0.0594,0.0598,0.0606,0.0608,0.0615,0.0616,0.0613,0.0614,0.0617,0.0616,0.0626,0.0627,0.0621,0.0621,0.0621,0,0.054,0.0545,0.0552,0.0555,0.0559,0.0564,0.0568,0.0572,0.0576,0.0582,0.0586,0.0592,0.0597,0.0607,0.0612,0.0618,0.0619,0.0622,0.062,0.0619,0.0619,0.0618,0.0619,0.0622,0.0622,0.0622,0.0622,0,0.0545,0.0547,0.0553,0.0559,0.0563,0.0568,0.0573,0.0576,0.0581,0.0585,0.0592,0.0596,0.0604,0.061,0.0617,0.062,0.0622,0.0623,0.0624,0.0623,0.0621,0.0622,0.0614,0.0622,0.0622,0.0622,0.0622,0.0622,0.0548,0.0552,0.0558,0.0564,0.0568,0.0573,0.0577,0.0581,0.0586,0.0593,0.0595,0.0602,0.0608,0.0617,0.0621,0.0626,0.0626,0.0628,0.0628,0.0628,0.0628,0.062,0.0628,0.0628,0.0628,0.0628,0.0628,0,0.0553,0.0557,0.0562,0.0569,0.0574,0.0575,0.0581,0.0585,0.0591,0.0596,0.0602,0.0609,0.0615,0.0621,0.0627,0.0631,0.0632,0.0632,0.0632,0.0633,0.0628,0.0626,0.0631,0.0631,0.0631,0.0631,0.0631,0.0631,0.0556,0.0563,0.0565,0.0574,0.0578,0.0585,0.0588,0.0592,0.0597,0.0605,0.061,0.0614,0.0619,0.0626,0.0632,0.0634,0.0636,0.0636,0.0638,0.0633,0.0633,0.0633,0.0631,0.0637,0.0637,0.0642,0.0642,0.0642]},{"header":{"parameterUnit":"m.s-1","parameterCategory":1,"la1":30.2991,"la2":30.254,"lo1":-89.0895,"lo2":-89.0444,"dy":0.0017,"dx":0.0017,"nx":28,"ny":28,"refTime":"2024-06-06T21:00:00:Z","depth":0,"parameterNumber":3,"parameterNumberName":"V-component_of_WINDS"},"data":[0,0,0,0,0,0,0,0,0,0,0,0,0,0,0,0,0,0,0,0,0,0,0,0,0,0,0,0,0,0,0,0,0,0,0,0,0,0,0,0,0,0,0,0,0,0,0,0,0,0,0,0,0,0,0,0,0,0,-0.9636,-0.9636,0,-0.9651,-0.9651,-0.9651,-0.9624,-0.9623,-0.9622,-0.9621,-0.9636,-0.9637,-0.9638,0,0,0,0,0,0,0,0,0,0,0,0,0,-0.9585,-0.9586,-0.9636,-0.9636,-0.9637,-0.9651,-0.9651,-0.9651,-0.9624,-0.9623,-0.9622,-0.9621,-0.9635,-0.9637,-0.9638,0,0,0,0,0,0,0,0,0,0,0,0,0,-0.9604,-0.9586,-0.9636,-0.9625,-0.9624,-0.9651,-0.9651,-0.9651,-0.9624,-0.9623,-0.9622,-0.962,-0.9635,-0.9637,-0.9639,-0.9677,0,0,-0.9644,-0.9645,0,0,0,0,0,0,0,0,-0.9603,-0.9606,-0.9626,-0.9626,-0.9625,-0.9634,-0.9638,-0.966,-0.9625,-0.9624,-0.9621,-0.962,-0.9636,-0.9638,-0.9644,-0.9677,-0.9678,-0.9644,-0.9645,-0.9646,-0.9647,0,0,0,0,0,0,0,-0.9602,-0.9605,-0.9642,-0.9627,-0.9626,-0.9619,-0.962,-0.9642,-0.9638,-0.9624,-0.9622,-0.9624,-0.9636,-0.9642,-0.9644,-0.9678,-0.9644,-0.9646,-0.9647,-0.9648,-0.9744,-0.9746,0,0,0,0,0,0,-0.9602,-0.9604,-0.9641,-0.9642,-0.961,-0.9621,-0.9622,-0.9633,-0.9637,-0.9637,-0.9626,-0.9623,-0.9639,-0.9642,-0.9644,-0.9689,-0.9646,-0.9648,-0.9649,-0.9743,-0.9745,-0.9746,0,0,0,0,0,0,-0.9601,-0.9605,-0.9641,-0.9623,-0.9627,-0.9623,-0.9635,-0.9634,-0.964,-0.9638,-0.9637,-0.9633,-0.9638,-0.9642,-0.9669,-0.9689,-0.9649,-0.965,-0.9741,-0.9743,-0.9745,-0.978,0,0,0,0,0,0,-0.9599,-0.9605,-0.962,-0.9623,-0.9628,-0.9666,-0.9636,-0.9635,-0.9643,-0.964,-0.9645,-0.9644,-0.9638,-0.9666,-0.9671,-0.9691,-0.9652,-0.9739,-0.9742,-0.9745,-0.9777,-0.9783,-0.9788,0,0,0,0,0,-0.9598,-0.9629,-0.9621,-0.9625,-0.9646,-0.9667,-0.9669,-0.9661,-0.9645,-0.9659,-0.9659,-0.9644,-0.9687,-0.9669,-0.9674,-0.9695,-0.9738,-0.9741,-0.9744,-0.9775,-0.9782,-0.9788,0,0,0,0,0,0,-0.9627,-0.9629,-0.962,-0.9653,-0.966,-0.9662,-0.968,-0.9669,-0.9681,-0.9677,-0.9667,-0.9668,-0.9697,-0.9699,-0.968,-0.9733,-0.9709,-0.9714,-0.9731,-0.9738,-0.9743,-0.9742,-0.9653,0,0,0,0,0,-0.9638,-0.9655,-0.9655,-0.9684,-0.9688,-0.9684,-0.9693,-0.9686,-0.9692,-0.9695,-0.9696,-0.9703,-0.9718,-0.9728,-0.9741,-0.9777,-0.9778,-0.9794,-0.98,-0.9805,-0.9808,-0.9828,-0.9835,-0.9757,-0.9757,-0.9757,0,0,-0.966,-0.9663,-0.9674,-0.9691,-0.9695,-0.9713,-0.9687,-0.9706,-0.9719,-0.9698,-0.9724,-0.9725,-0.9732,-0.9764,-0.9778,-0.9766,-0.983,-0.9809,-0.9812,-0.9814,-0.9832,-0.9839,-0.9846,-0.9759,-0.9759,-0.9758,0,0,-0.9708,-0.9712,-0.9737,-0.9742,-0.975,-0.9747,-0.9753,-0.9756,-0.9756,-0.9782,-0.9767,-0.9782,-0.9808,-0.9813,-0.982,-0.9871,-0.9858,-0.9875,-0.9905,-0.9924,-0.993,-0.9936,-0.9954,-0.9961,-0.9879,-0.988,-0.988,0,-0.9735,-0.9761,-0.9751,-0.9772,-0.978,-0.9762,-0.9787,-0.9793,-0.9804,-0.981,-0.9796,-0.9828,-0.9832,-0.9865,-0.9877,-0.9883,-0.9889,-0.9875,-0.993,-0.9935,-0.994,-0.9958,-0.9965,-0.9882,-0.9881,-0.9881,-0.9881,0,-0.9793,-0.9811,-0.983,-0.9842,-0.9852,-0.9875,-0.9869,-0.988,-0.9872,-0.9871,-0.9897,-0.9901,-0.9915,-0.9922,-0.9914,-0.9954,-0.9946,-0.9932,-0.9908,-0.995,-0.9966,-0.9973,-0.9885,-0.9884,-0.9883,-0.9883,0,0,-0.986,-0.9867,-0.9874,-0.9879,-0.9886,-0.99,-0.9922,-0.9936,-0.9946,-0.9954,-0.9973,-0.9995,-0.9982,-0.9989,-0.9982,-0.9998,-1.0039,-0.9982,-0.9982,-0.9992,-1.0083,-1.0094,-1.0102,-1.003,-1.0032,-1.0033,-1.0082,0,-0.9909,-0.9947,-0.994,-0.9977,-0.9994,-0.9977,-0.9996,-1.0003,-1.0002,-1.0016,-1.0014,-1.0031,-1.0012,-1.0016,-1.0031,-1.0031,-1.0057,-1.0027,-1.0047,-1.0048,-1.0046,-1.011,-1.0122,-1.0169,-1.0089,-1.009,-1.009,0,-0.9971,-0.9982,-1.0021,-1.0025,-1.0032,-1.005,-1.0062,-1.0076,-1.0082,-1.008,-1.0089,-1.0079,-1.01,-1.0077,-1.0107,-1.0086,-1.0094,-1.0095,-1.0097,-1.0099,-1.0072,-1.0114,-1.0183,-1.019,-1.01,-1.0099,-1.0099,0,-1.0017,-1.0041,-1.0068,-1.0073,-1.0079,-1.0091,-1.0094,-1.01,-1.0109,-1.0119,-1.0125,-1.0138,-1.0145,-1.0155,-1.0149,-1.0132,-1.018,-1.0156,-1.0179,-1.018,-1.019,-1.019,-1.0262,-1.0195,-1.0195,-1.0195,-1.0195,0,-1.0072,-1.0096,-1.0089,-1.0105,-1.0133,-1.0123,-1.0151,-1.0151,-1.0156,-1.0173,-1.0159,-1.0174,-1.0165,-1.018,-1.0175,-1.0201,-1.0204,-1.0203,-1.0201,-1.0204,-1.0205,-1.021,-1.0206,-1.0197,-1.0196,-1.0196,-1.0196,0,-1.0128,-1.0123,-1.0151,-1.0155,-1.0156,-1.0176,-1.0179,-1.0194,-1.0192,-1.0213,-1.0217,-1.0214,-1.0231,-1.0225,-1.0243,-1.024,-1.0273,-1.0267,-1.0271,-1.0269,-1.0293,-1.0291,-1.0372,-1.0382,-1.0308,-1.0309,-1.0309,0,-1.0163,-1.0182,-1.0187,-1.0197,-1.0201,-1.0217,-1.0226,-1.0218,-1.0228,-1.0238,-1.0252,-1.0267,-1.0279,-1.0307,-1.0306,-1.032,-1.0314,-1.0342,-1.0316,-1.0319,-1.0315,-1.0314,-1.0316,-1.0347,-1.0348,-1.0348,-1.0349,0,-1.0227,-1.0224,-1.0237,-1.0251,-1.0262,-1.0272,-1.0281,-1.029,-1.0282,-1.0294,-1.0311,-1.0321,-1.0339,-1.0355,-1.0367,-1.037,-1.0358,-1.0357,-1.0363,-1.0366,-1.0368,-1.0367,-1.0285,-1.0355,-1.0354,-1.0354,-1.0354,-1.0353,-1.0274,-1.0289,-1.0296,-1.0312,-1.0317,-1.0326,-1.034,-1.034,-1.0355,-1.0369,-1.0363,-1.0383,-1.0389,-1.0405,-1.0409,-1.0425,-1.0414,-1.0423,-1.0425,-1.0428,-1.0431,-1.0365,-1.0427,-1.0427,-1.0426,-1.0426,-1.0426,0,-1.0337,-1.034,-1.0355,-1.0367,-1.038,-1.0368,-1.0377,-1.0388,-1.0406,-1.0413,-1.0425,-1.0445,-1.046,-1.046,-1.0474,-1.0487,-1.0482,-1.0491,-1.049,-1.0491,-1.0439,-1.0433,-1.0494,-1.0494,-1.0494,-1.0494,-1.0494,-1.0494,-1.0371,-1.0397,-1.0395,-1.0424,-1.0427,-1.0447,-1.0453,-1.0461,-1.0466,-1.0489,-1.0502,-1.0502,-1.0506,-1.0521,-1.0534,-1.0534,-1.054,-1.0551,-1.0549,-1.0501,-1.0494,-1.0488,-1.0481,-1.0552,-1.0552,-1.0598,-1.0599,-1.0599]}]]